STARLINK-36661

Last updated on Sun Mar 15 2026 00:02:07 GMT+0000 (Coordinated Universal Time)

1 67831U 26033L 26073.58335648 -.01942402 00000+0 -23966-1 0 9999 2 67831 42.9995 241.8340 0001615 270.3766 128.3778 15.62595105 5450

Satellite not in orbit